Hourly Data Report for February 20, 2019

TORONTO INTL A
ONTARIO
Current Station Operator: NAVCAN

43°40'36.000" N
79°37'50.000" W
173.40 m
6158731
71624
YYZ

Download Data

Hourly Data (February 2019)
Hourly Data Report for February 20, 2019
TIME
LST
Temp Definition
°C
Dew Point Definition
°C
Rel Hum Definition
%
Precip. Amount Definition
mm

Wind Dir Definition
10's deg

Wind Spd Definition
km/h
Visibility Definition
km
Stn Press Definition
kPa
Hmdx Definition


Wind Chill Definition


Weather Definition


00:00 -9.9 -14.8 68   28 7 24.1 101.32   -14 LegendNANA
01:00 -9.0 -13.8 69   34 10 24.1 101.27   -14 Mostly Cloudy
02:00 -10.3 -14.9 69   3 10 24.1 101.26   -16 LegendNANA
03:00 -10.1 -14.6 70   36 11 24.1 101.20   -16 LegendNANA
04:00 -10.7 -15.2 70   0 1 24.1 101.13   -11 Mostly Cloudy
05:00 -10.5 -14.7 72   34 3 24.1 101.05   -12 LegendNANA
06:00 -9.8 -14.1 71   2 9 24.1 101.04   -15 LegendNANA
07:00 -9.1 -13.3 72   3 10 19.3 100.97   -14 Cloudy
08:00 -7.6 -11.7 72   5 5 16.1 100.91   -10 LegendNANA
09:00 -5.1 -9.2 73   6 10 19.3 100.74   -9 LegendNANA
10:00 -3.0 -7.3 73   10 18 24.1 100.59   -9 Cloudy
11:00 -2.2 -7.4 68   9 15 24.1 100.54   -7 LegendNANA
12:00 -1.4 -7.5 63   10 22 24.1 100.41   -7 LegendNANA
13:00 -0.7 -7.3 61   10 26 24.1 100.17   -7 Cloudy
14:00 -0.9 -7.0 63   9 24 24.1 99.96   -7 LegendNANA
15:00 -1.1 -7.3 63   10 24 19.3 99.88   -7 Snow
16:00 -1.5 -6.8 67   8 31 16.1 99.69   -9 Snow
17:00 -1.4 -5.8 72   9 22 16.1 99.54   -7 Snow
18:00 -1.3 -4.5 79   10 19 4.0 99.48   -7 Freezing Drizzle, Fog
19:00 -0.6 -3.0 84   10 17 4.0 99.22   -6 Freezing Drizzle, Fog
20:00 -0.1 -2.1 86   11 18 6.4 99.03   -5 Freezing Drizzle, Fog
21:00 -0.2 -2.0 87   13 22 9.7 98.88   -6 Freezing Drizzle, Fog
22:00 -0.2 -1.9 88   12 12 4.0 98.83   -4 Freezing Rain, Fog
23:00 -0.2 -1.7 90   12 10 6.4 98.68   -4 Freezing Drizzle, Snow, Fog

Notes on Data Quality.

Legend

  • E = Estimated
  • M = Missing
  • NA = Not Available*
  • [empty] = Indicates an unobserved value
Date modified: